{"data":{"norad_id":54062,"intl_designator":"2022-136M","name":"STARLINK-5170","alt_names":[],"object_type":"PAYLOAD","status":"ACTIVE","operator":null,"country":"US","launch_date":"2022-10-20","launch_site_code":"AFETR","launch_vehicle":null,"mission":null,"orbit_class":"UNKNOWN","rcs_meters":null,"size_class":null,"mass_kg":null,"dimensions":null,"purposes":["comms"],"wikipedia_slug":null,"has_3d_model":false,"image_url":null,"decayed_at":null,"tle_current":{"epoch":"2026-09-20T10:07:23.492352Z","epoch_age_seconds":93290,"freshness":"FRESH","line1":"1 54062U 22136M   26263.42179968 -.00000104  00000+0  79345-5 0  9994","line2":"2 54062  53.1596 177.9267 0001309  90.1376 269.9777 15.35392428216408","mean_motion":15.35392428,"eccentricity":0.0001309,"inclination_deg":53.1596,"raan_deg":177.9267,"arg_perigee_deg":90.1376,"mean_anomaly_deg":269.9777,"bstar":7.9345e-6,"rev_number":21640,"period_min":93.787097926212,"perigee_km":458.86004390982,"apogee_km":460.65020406789,"semimajor_km":6837.8921239889,"source":"CELESTRAK","updated_at":"2026-09-21T09:00:33.077791Z"}}}